| time (UTC) | temp C | wind direction | speed KPH | gust KPH | rain 1hr cm | rain 24hr cm | rain mn cm | humidity % | barometer mb |
| 20260503020015 | 18 | 285 | 1.6 | 3.2 | 0.00 | 0.00 | 0.00 | 32 | 1015.8 |
| 20260503014504 | 18 | 285 | 0.0 | 3.2 | 0.00 | 0.00 | 0.00 | 32 | 1015.9 |
| 20260503013008 | 17 | 285 | 0.0 | 3.2 | 0.00 | 0.00 | 0.00 | 33 | 1015.8 |
| 20260503011515 | 18 | 285 | 0.0 | 3.2 | 0.00 | 0.00 | 0.00 | 32 | 1016.0 |
| 20260503010018 | 20 | 253 | 3.2 | 8.0 | 0.00 | 0.00 | 0.00 | 31 | 1016.1 |
| 20260503004522 | 18 | 161 | 0.0 | 6.4 | 0.00 | 0.00 | 0.00 | 32 | 1016.2 |
| 20260503003012 | 18 | 158 | 0.0 | 6.4 | 0.00 | 0.00 | 0.00 | 33 | 1016.4 |
| 20260503001512 | 18 | 160 | 0.0 | 3.2 | 0.00 | 0.00 | 0.00 | 33 | 1016.5 |
| 20260503000015 | 18 | 160 | 0.0 | 4.8 | 0.00 | 0.00 | 0.00 | 33 | 1016.6 |
| 20260502234521 | 18 | 150 | 3.2 | 12.9 | 0.00 | 0.00 | 0.00 | 33 | 1016.8 |
| 20260502233020 | 18 | 24 | 1.6 | 6.4 | 0.00 | 0.00 | 0.00 | 32 | 1016.9 |
| 20260502231514 | 18 | 70 | 6.4 | 12.9 | 0.00 | 0.00 | 0.00 | 32 | 1017.0 |
| 20260502230013 | 19 | 98 | 3.2 | 17.7 | 0.00 | 0.00 | 0.00 | 33 | 1017.3 |
| 20260502224531 | 19 | 60 | 0.0 | 9.7 | 0.00 | 0.00 | 0.00 | 32 | 1017.5 |
| 20260502223022 | 18 | 76 | 1.6 | 4.8 | 0.00 | 0.00 | 0.00 | 31 | 1017.6 |
| 20260502221524 | 18 | 61 | 1.6 | 6.4 | 0.00 | 0.00 | 0.00 | 32 | 1017.8 |
| 20260502220017 | 18 | 278 | 3.2 | 6.4 | 0.00 | 0.00 | 0.00 | 32 | 1018.1 |
| 20260502214517 | 19 | 322 | 0.0 | 8.0 | 0.00 | 0.00 | 0.00 | 32 | 1018.2 |
| 20260502213024 | 19 | 130 | 0.0 | 4.8 | 0.00 | 0.00 | 0.00 | 32 | 1018.4 |
| 20260502211524 | 18 | 127 | 1.6 | 4.8 | 0.00 | 0.00 | 0.00 | 33 | 1018.6 |
| 20260502210010 | 18 | 266 | 3.2 | 9.7 | 0.00 | 0.00 | 0.00 | 34 | 1018.8 |
| 20260502204527 | 18 | 27 | 4.8 | 9.7 | 0.00 | 0.00 | 0.00 | 1018.9 | |
| 20260502203021 | 18 | 356 | 3.2 | 9.7 | 0.00 | 0.00 | 0.00 | 32 | 1019.1 |
| 20260502201527 | 19 | 169 | 3.2 | 11.3 | 0.00 | 0.00 | 0.00 | 33 | 1019.3 |
| 20260502200045 | 18 | 293 | 3.2 | 9.7 | 0.00 | 0.00 | 0.00 | 34 | 1019.4 |
| 20260502194514 | 17 | 5 | 3.2 | 17.7 | 0.00 | 0.00 | 0.00 | 35 | 1019.5 |
| 20260502193024 | 17 | 286 | 1.6 | 8.0 | 0.00 | 0.00 | 0.00 | 36 | 1019.7 |
| 20260502191524 | 17 | 269 | 3.2 | 8.0 | 0.00 | 0.00 | 0.00 | 35 | 1019.8 |
| 20260502190008 | 17 | 259 | 6.4 | 11.3 | 0.00 | 0.00 | 0.00 | 35 | 1019.9 |
| 20260502184519 | 17 | 327 | 6.4 | 12.9 | 0.00 | 0.00 | 0.00 | 37 | 1020.1 |
| 20260502183020 | 17 | 26 | 3.2 | 6.4 | 0.00 | 0.00 | 0.00 | 37 | 1020.2 |
| 20260502181509 | 17 | 40 | 3.2 | 8.0 | 0.00 | 0.00 | 0.00 | 35 | 1020.3 |
| 20260502163019 | 15 | 233 | 3.2 | 6.4 | 0.00 | 0.00 | 0.00 | 42 | 1020.9 |
| 20260502161518 | 14 | 314 | 4.8 | 11.3 | 0.00 | 0.00 | 0.00 | 43 | 1021.0 |
| 20260502151518 | 12 | 285 | 4.8 | 9.7 | 0.00 | 0.00 | 0.00 | 50 | 1020.9 |
| 20260502123030 | 7 | 19 | 1.6 | 4.8 | 0.00 | 0.00 | 0.00 | 54 | 1019.8 |
| 20260502121512 | 6 | 1 | 0.0 | 6.4 | 0.00 | 0.00 | 0.00 | 57 | 1019.5 |
| 20260502114526 | 6 | 331 | 1.6 | 6.4 | 0.00 | 0.00 | 0.00 | 56 | 1019.3 |
| 20260502113026 | 6 | 282 | 3.2 | 8.0 | 0.00 | 0.00 | 0.00 | 55 | 1019.2 |
| 20260502111527 | 6 | 275 | 1.6 | 8.0 | 0.00 | 0.00 | 0.00 | 55 | 1018.8 |
| 20260502110019 | 7 | 309 | 1.6 | 3.2 | 0.00 | 0.00 | 0.00 | 53 | 1018.3 |
| 20260502104522 | 7 | 297 | 1.6 | 6.4 | 0.00 | 0.00 | 0.00 | 52 | 1018.1 |
| 20260502103053 | 7 | 295 | 1.6 | 6.4 | 0.00 | 0.00 | 0.00 | 51 | 1017.8 |
| 20260502101544 | 7 | 350 | 3.2 | 6.4 | 0.00 | 0.00 | 0.00 | 51 | 1017.9 |
| 20260502091508 | 8 | 274 | 1.6 | 3.2 | 0.00 | 0.00 | 0.00 | 45 | 1017.0 |
| 20260502071526 | 8 | 346 | 1.6 | 4.8 | 0.00 | 0.00 | 0.00 | 39 | 1016.8 |
| 20260502070014 | 9 | 295 | 1.6 | 3.2 | 0.00 | 0.00 | 0.00 | 38 | 1016.6 |
| 20260502064514 | 10 | 321 | 1.6 | 4.8 | 0.00 | 0.00 | 0.00 | 36 | 1016.6 |
| 20260502063018 | 10 | 330 | 1.6 | 4.8 | 0.00 | 0.00 | 0.00 | 36 | 1016.6 |
| 20260502061525 | 10 | 342 | 1.6 | 3.2 | 0.00 | 0.00 | 0.00 | 38 | 1016.6 |
| 20260502060026 | 9 | 337 | 1.6 | 4.8 | 0.00 | 0.00 | 0.00 | 37 | 1016.5 |
| 20260502054512 | 10 | 11 | 3.2 | 9.7 | 0.00 | 0.00 | 0.00 | 35 | 1016.5 |
| 20260502053018 | 11 | 274 | 1.6 | 6.4 | 0.00 | 0.00 | 0.00 | 33 | 1016.1 |
| 20260502051523 | 12 | 282 | 3.2 | 8.0 | 0.00 | 0.00 | 0.00 | 32 | 1016.1 |
| 20260502050027 | 12 | 267 | 6.4 | 9.7 | 0.00 | 0.00 | 0.00 | 32 | 1016.0 |
| 20260502044528 | 11 | 272 | 4.8 | 8.0 | 0.00 | 0.00 | 0.00 | 31 | 1016.0 |
| 20260502043020 | 13 | 311 | 3.2 | 8.0 | 0.00 | 0.00 | 0.00 | 29 | 1015.9 |
| 20260502041520 | 13 | 335 | 3.2 | 9.7 | 0.00 | 0.00 | 0.00 | 28 | 1015.8 |
| 20260502040022 | 14 | 269 | 6.4 | 12.9 | 0.00 | 0.00 | 0.00 | 27 | 1015.8 |
| 20260502034526 | 14 | 255 | 11.3 | 14.5 | 0.00 | 0.00 | 0.00 | 26 | 1015.7 |
| 20260502033038 | 14 | 261 | 6.4 | 11.3 | 0.00 | 0.00 | 0.00 | 24 | 1015.6 |
| 20260502031518 | 15 | 269 | 9.7 | 12.9 | 0.00 | 0.00 | 0.00 | 23 | 1015.5 |
| 20260502030024 | 16 | 276 | 9.7 | 12.9 | 0.00 | 0.00 | 0.00 | 21 | 1015.4 |
| 20260502024523 | 17 | 274 | 4.8 | 6.4 | 0.00 | 0.00 | 0.00 | 19 | 1015.1 |
| 20260502023025 | 18 | 272 | 6.4 | 11.3 | 0.00 | 0.00 | 0.00 | 17 | 1015.0 |
| 20260502021518 | 20 | 295 | 6.4 | 11.3 | 0.00 | 0.00 | 0.00 | 16 | 1014.9 |